Location: Cointrin
(46.2167°N, 6.1167°E)
Time: 15:35:40
(UTC+00:00)

Cosmos 1709 Rocket - Pass Details

Date: 08 February 2023
Orbit: 947 x 1002 km, 82.9° (Epoch: 21 March)

Event Time Altitude Azimuth Distance (km) Brightness Sun altitude
Rises 18:07:47 0° 354° (N) 3,647 7.0 -13.8°
Reaches altitude 10° 18:10:23 10° 360° (N) 2,691 6.2 -14.2°
Maximum altitude 18:16:22 53° 77° (ENE) 1,155 4.0 -15.3°
Drops below altitude 10° 18:22:18 10° 153° (SSE) 2,663 6.1 -16.3°
Sets 18:24:51 0° 158° (SSE) 3,606 6.8 -16.7°
